Home > Weather > Charlotte > Past weeks

Flag for USA Past Weather in Charlotte, North Carolina, USA — Yesterday and Last 2 Weeks

Now
97 °F

Passing clouds.


Feels Like: 101 °F
Forecast: 75 / 95 °F
Wind: 5 mph from Northwest

Location: Charlotte / Douglas International Airport

Current Time: Jul 26, 2016 at 3:53:27 PM

Latest Report: Jul 26, 2016 at 2:52 PM


Visibility: 10 mi

Pressure: 29.96 "Hg

Humidity: 36%

Dew Point: 66 °F

Location of CharlotteLocation

Past Weather in Charlotte — Graph

°F

Charlotte Temperature Yesterday

Maximum temperature yesterday: 97 °F (at 3:52 PM)
Minimum temperature yesterday: 77 °F (at 5:52 AM)
Average temperature yesterday: 87 °F

High & Low Weather Summary for the Past Weeks

 TemperatureHumidityPressure
High97 °F (Jul 25, 3:52 PM)97% (Jul 17, 7:52 AM)30.25 "Hg (Jul 17, 7:52 AM)
Low69 °F (Jul 16, 5:52 PM)32% (Jul 14, 2:52 PM)29.93 "Hg (Jul 25, 6:52 PM)
Average82 °F67%30.07 "Hg
* Reported Jul 11 2:52 PM — Jul 26 2:52 PM, Charlotte, Weather by CustomWeather, © 2016

Note: Actual official high and low records may vary slightly from our data, if they occured in-between our weather recording intervals... More about our weather records

Advertising

Charlotte Weather History for the Previous 24 Hours

Scroll right to see more
 ConditionsComfort  
Time TempWeatherWind HumidityBarometerVisibility
2:52 PM
Tue, Jul 26
97 °FPassing clouds.5 mph36%29.96 "Hg10 mi
1:52 PM95 °FPassing clouds.7 mph43%29.98 "Hg10 mi
12:52 PM94 °FPassing clouds.7 mph48%30.00 "Hg10 mi
11:52 AM92 °FScattered clouds.5 mph52%30.01 "Hg10 mi
10:52 AM87 °FPassing clouds.No wind59%30.02 "Hg10 mi
9:52 AM83 °FSunny.6 mph65%30.02 "Hg10 mi
8:52 AM81 °FScattered clouds.6 mph69%30.03 "Hg10 mi
7:52 AM79 °FScattered clouds.8 mph72%30.01 "Hg10 mi
6:52 AM76 °FPassing clouds.3 mph80%30.01 "Hg10 mi
5:52 AM77 °FPassing clouds.3 mph74%30.00 "Hg10 mi
4:52 AM78 °FPassing clouds.6 mph71%29.98 "Hg10 mi
3:52 AM79 °FPassing clouds.6 mph69%29.98 "Hg10 mi
2:52 AM80 °FPassing clouds.7 mph67%29.98 "Hg10 mi
1:52 AM80 °FPassing clouds.7 mph69%30.00 "Hg10 mi
12:52 AM82 °FPassing clouds.7 mph65%30.01 "Hg10 mi
11:52 PM
Mon, Jul 25
83 °FPassing clouds.6 mph65%30.01 "Hg10 mi
10:52 PM85 °FPassing clouds.7 mph59%30.00 "Hg10 mi
9:52 PM86 °FPassing clouds.7 mph57%29.99 "Hg10 mi
8:52 PM88 °FPartly sunny.8 mph54%29.96 "Hg10 mi
7:52 PM91 °FPartly sunny.6 mph49%29.96 "Hg10 mi
6:52 PM94 °FPassing clouds.12 mph43%29.93 "Hg10 mi
5:52 PM96 °FPassing clouds.10 mph40%29.93 "Hg10 mi
4:52 PM96 °FPassing clouds.7 mph40%29.94 "Hg10 mi
3:52 PM97 °FScattered clouds.8 mph37%29.96 "Hg10 mi
Weather by CustomWeather, © 2016

See weather overviewHow to use our weather pages